User: anonymous   Login
Location: 5810 Zion Rd, Cleves, OH 45002, USA
(39.1922°N, 84.7113°W)
Time: 12:18:17
(UTC-05:00)
Language:

DUCHIFAT 1 - Orbit

View from above orbital plane
View from above orbital plane
View from above satellite
View from above satellite

Ground track
Ground track

The orbit data is extracted from the following two-line orbital elements,

1 40021U 14033M   20025.38095245  .00000192  00000-0  25381-4 0  9998
2 40021  97.9358 315.8163 0013990  46.6307 313.6074 14.90793889304420
Epoch (UTC): 25 January 2020 09:08:34
Eccentricity: 0.0013990
inclination: 97.9358°
perigee height: 586 km
apogee height: 605 km
right ascension of ascending node: 315.8163°
argument of perigee: 46.6307°
revolutions per day: 14.90793889
mean anomaly at epoch: 313.6074°
orbit number at epoch: 30442

The dashed part of the orbit path shows where the satellite is in the earth's shadow,  

DLR